Location: Gl�nouze
(46.9952°N, 0.0091°W)
Time: 01:27:11
(UTC+00:00)

Daily predictions for brighter satellites

Satellite Brightness Start Highest point End
(mag) Time Altitude Azimuth Time Altitude Azimuth Time Altitude Azimuth
ATLAS CENTAUR R/B 4.2 00:02:33 10° N 00:03:42 13° NNE 00:05:09 10° ENE
Lacrosse 5 3.9 00:01:20 10° W 00:03:12 14° WSW 00:03:12 14° WSW
Cosmos 292 Rocket 3.8 00:03:39 49° SW 00:04:53 73° WNW 00:09:46 10° NNE
STARLINK-1104 3.5 00:04:17 10° WNW 00:08:12 70° WSW 00:08:12 70° WSW
Cosmos 1655 Rocket 4.1 00:07:30 38° SSW 00:09:56 68° W 00:16:11 10° N
S3M 4.2 00:04:27 10° NNW 00:10:29 59° W 00:12:36 39° SSW
Cosmos 1726 2.1 00:07:20 10° NNW 00:10:54 71° WNW 00:10:54 71° WNW
GEOS 3 Rocket 4.1 00:07:39 19° ESE 00:11:19 59° NE 00:16:32 10° NNW
COSMOS 2455 3.5 00:11:39 35° SE 00:13:04 41° ESE 00:18:40 10° NE
STARLINK-1144 3.6 00:09:16 10° WNW 00:13:00 62° WSW 00:13:00 62° WSW
SL-27 R/B 4.0 00:10:39 10° NW 00:13:10 27° W 00:13:10 27° W
Meteor 1-29 4.4 00:10:53 10° NE 00:13:32 28° E 00:13:32 28° E
Cosmos 2263 4.1 00:12:25 43° SSW 00:14:20 84° WNW 00:19:59 10° NNE
Cosmos 2228 3.4 00:10:32 10° N 00:14:44 54° ENE 00:15:32 45° ESE
STARLINK-1103 3.8 00:14:15 10° WNW 00:17:46 55° WSW 00:17:46 55° WSW
Meteor 2-15 Rocket 4.4 00:12:16 10° N 00:18:28 81° E 00:20:55 39° SSE
Cosmos 1953 2.6 00:15:26 10° NNW 00:19:20 51° W 00:19:26 51° W
Cosmos 1340 Rocket 2.8 00:16:55 10° NNW 00:20:56 68° W 00:21:08 67° WSW
Cosmos 1271 Rocket 3.9 00:21:40 30° W 00:22:12 31° WNW 00:25:43 10° N
STARLINK-1101 4.0 00:19:14 10° WNW 00:22:33 48° W 00:22:33 48° W
Cosmos 1992 Rocket 4.0 00:25:15 44° SW 00:26:51 73° WNW 00:32:05 10° NNE
COSMOS 2487 2.6 00:23:53 10° NNW 00:27:18 67° ENE 00:27:18 67° ENE
Cosmos 1833 4.2 00:22:31 10° NNW 00:28:08 68° WSW 00:29:45 46° S
STARLINK-1102 4.2 00:24:15 10° WNW 00:27:21 42° W 00:27:21 42° W
Cosmos 1707 4.1 00:29:05 28° W 00:29:39 29° WNW 00:33:07 10° NNW
STARLINK-1111 4.4 00:29:14 10° WNW 00:32:07 37° W 00:32:07 37° W
USA 215 4.2 00:33:06 26° SW 00:33:16 26° SW 00:38:35 10° WNW
Cosmos 1626 3.3 00:34:31 31° ESE 00:34:51 32° E 00:38:12 10° NNE
Cosmos 1656 Rocket 3.7 00:33:51 41° SW 00:35:53 81° WNW 00:41:31 10° NNE
In-Cosmos 22 4.3 00:35:37 41° SW 00:37:19 61° WNW 00:42:34 10° N
Cosmos 1606 Rocket 3.4 00:33:47 10° N 00:38:08 83° W 00:38:48 62° S
FALCON 9 R/B 3.6 00:38:25 32° SSE 00:39:23 33° SSE 00:52:50 10° E
EO 1 Delta rocket 4.5 00:36:15 10° N 00:42:42 66° WNW 00:44:41 39° SW
CZ-4 R/B 3.9 00:39:15 10° N 00:44:06 73° WNW 00:45:23 47° SW
Cosmos 2292 Rocket 4.4 00:45:34 34° WSW 00:46:22 37° W 00:49:54 10° N
Cosmos 2297 Rocket 4.1 00:42:38 10° N 00:47:25 27° NE 00:52:11 10° ESE
Meteor 2-21 4.5 00:45:34 37° S 00:48:07 73° E 00:54:18 10° NNE
SL-4 R/B 2.5 00:49:12 49° SSE 00:49:40 51° SE 00:54:17 10° ENE
NOSS 3-2 (C) 4.3 00:43:24 10° NW 00:50:44 52° WSW 00:54:30 31° S
Cosmos 1437 4.3 00:52:48 24° E 00:52:48 24° E 00:55:10 10° NE
PSLV R/B 3.8 00:48:09 10° N 00:52:45 66° WNW 00:53:53 47° SW
Cosmos 1674 3.0 00:53:21 49° W 00:53:37 51° WNW 00:57:18 10° N
Aureole 3 4.4 00:52:13 10° NNW 00:55:01 26° WNW 00:55:01 26° WNW
ATLAS CENTAUR R/B 1.5 00:56:56 56° S 00:57:37 66° SE 01:01:45 10° NE
SL-19 R/B 4.3 00:52:28 10° NNE 00:57:51 68° ESE 01:00:03 37° S
Cosmos 1777 Rocket 4.0 00:54:14 10° NNW 00:59:30 85° ENE 01:01:54 33° SSE
Timation 2 Rocket 4.1 00:53:16 10° NNW 00:59:41 73° ENE 01:04:30 17° SE
NOSS 3-4 (A) 3.4 00:57:31 33° SW 01:00:25 80° NW 01:06:51 10° NE
NOSS 3-4 (C) 3.4 00:57:37 33° SW 01:00:31 81° NW 01:06:57 10° NE
BREEZE-M R/B 4.0 01:01:07 32° SE 01:01:07 32° SE 01:03:49 10° E
SL-16 R/B 3.2 00:56:01 14° SE 01:01:07 51° ENE 01:07:04 10° N
Spot 1 4.2 01:00:54 42° SSE 01:02:29 87° E 01:07:22 10° NNW
ATLAS 3B R/B 2.6 00:59:56 10° NW 01:06:45 81° SW 01:12:42 15° SSE
CENTAUR R/B 3.5 01:02:48 10° NW 01:10:31 47° WSW 01:14:47 28° S
Cosmos 1244 Rocket 4.5 01:07:54 35° SSW 01:10:41 78° W 01:16:55 10° N
BREEZE-M DEB (TANK) 2.1 01:12:39 43° E 01:12:39 43° E 01:14:16 10° ENE
Meteor 2-21 Rocket 4.4 01:11:40 34° S 01:14:31 89° E 01:20:44 10° N
Cosmos 1908 4.4 01:11:50 10° NNW 01:15:08 28° W 01:15:09 28° W
Cosmos 1867 3.8 01:09:54 10° NW 01:15:10 50° WSW 01:16:44 38° SSW
Cosmos 1892 Rocket 3.8 01:14:51 44° SW 01:15:58 59° W 01:20:20 10° N
Cosmos 1745 Rocket 4.2 01:12:45 28° SSE 01:16:03 62° E 01:22:06 10° NNE
RESURS DK-1 2.5 01:19:17 48° S 01:20:12 64° ESE 01:24:20 10° NE
Cosmos 2227 Rocket 3.5 01:17:57 10° NNW 01:23:18 40° NE 01:28:36 10° ESE
Cosmos 1356 Rocket 3.6 01:19:52 10° N 01:24:00 67° ENE 01:25:49 32° SSE
Meteor 1-24 Rocket 3.6 01:22:03 37° SSW 01:24:12 72° WNW 01:29:36 10° N
Cosmos 2369 Rocket 4.1 01:20:55 10° W 01:25:22 23° NW 01:29:48 10° N
Cosmos 1726 Rocket 4.4 01:22:14 10° NNW 01:26:06 33° W 01:26:46 31° WSW
CZ-2D R/B 2.6 01:22:23 10° NNE 01:27:33 53° E 01:30:15 27° SSE
Helios 1B rocket 3.9 01:24:22 10° N 01:27:50 26° WNW 01:29:11 22° W
ATLAS 2AS CENTAUR R/B 3.4 01:23:17 19° WSW 01:29:20 61° NW 01:37:10 10° NE
ADEOS II 3.9 01:25:50 10° NE 01:29:59 23° E 01:34:07 10° SE
CZ-4C R/B 3.4 01:30:46 36° SSE 01:32:28 89° ENE 01:36:50 10° NNW
STARLINK-1228 2.9 01:31:04 10° WNW 01:34:26 82° SSW 01:37:46 10° ESE
DELTA 2 DEB (DPAF) 4.2 01:34:10 39° SSW 01:35:37 60° WSW 01:40:03 10° NNW
STARLINK-1234 2.7 01:32:31 10° WNW 01:35:39 84° SSW 01:37:02 30° SE
Cosmos 1943 Rocket 4.5 01:33:00 10° WNW 01:36:18 16° NW 01:39:40 10° N
STARLINK-1212 2.9 01:33:53 10° WNW 01:37:00 77° NNE 01:40:06 10° ESE
Resurs 1-4 Rocket 2.3 01:32:04 10° NNE 01:37:21 66° ESE 01:40:11 28° S
STARLINK-1105 2.9 01:34:22 10° WNW 01:37:28 77° NNE 01:40:33 10° ESE
STARLINK-1232 4.5 01:33:29 10° WNW 01:37:33 51° NNE 01:41:37 10° E
Meteor 2-5 Rocket 4.3 01:35:17 27° SW 01:37:45 43° WNW 01:43:06 10° N
STARLINK-1209 2.7 01:34:46 10° WNW 01:37:55 77° SSW 01:38:42 47° SE
STARLINK-1247 2.9 01:35:16 10° WNW 01:38:23 79° NNE 01:41:31 10° ESE
STARLINK-1227 2.9 01:35:44 10° WNW 01:38:50 79° NNE 01:41:55 10° ESE
STARLINK-1226 2.9 01:36:34 10° WNW 01:39:42 80° NNE 01:42:49 10° ESE
STARLINK-52 3.0 01:39:41 57° SSE 01:39:46 57° SE 01:42:56 10° ENE
STARLINK-1215 2.8 01:37:31 10° WNW 01:40:39 82° NNE 01:43:47 10° ESE
STARLINK-1217 2.8 01:39:17 10° WNW 01:42:25 84° NNE 01:45:32 10° ESE
STARLINK-1208 4.4 01:38:27 10° WNW 01:42:32 54° NNE 01:46:36 10° E
STARLINK-1229 2.8 01:40:12 10° WNW 01:43:21 85° NE 01:46:27 10° ESE
STARLINK-1270 2.8 01:41:04 10° WNW 01:44:12 87° NNE 01:47:20 10° ESE
NPP 3.9 01:39:24 10° NNE 01:44:47 66° ESE 01:47:57 25° S
STARLINK-1189 2.7 01:42:54 10° WNW 01:46:02 89° NNE 01:49:09 10° ESE
STARLINK-1188 2.7 01:43:47 10° WNW 01:46:55 89° WSW 01:50:03 10° ESE
STARLINK-1271 4.3 01:43:27 10° WNW 01:47:33 56° NNE 01:51:38 10° E
STARLINK-1235 2.6 01:44:29 10° WNW 01:47:35 71° SSW 01:50:40 10° SE
STARLINK-1187 2.6 01:44:54 10° WNW 01:48:00 79° SSW 01:51:06 10° SE
Cosmos 1898 Rocket 4.4 01:43:32 10° NNW 01:48:44 49° ENE 01:53:53 10° SE
Starlink 7 placeholder 3.9 01:49:43 28° N 01:49:43 28° N 01:51:10 10° NE
STARLINK-1191 2.7 01:46:16 10° WNW 01:49:22 86° SW 01:52:29 10° ESE
GEOS 3 Rocket 4.4 01:48:42 28° SW 01:49:36 30° WSW 01:54:12 10° WNW
Lacrosse 4 Rocket 4.2 01:46:36 10° N 01:49:58 21° NE 01:53:15 10° E
Cosmos 2058 Rocket 4.1 01:46:10 10° NNW 01:50:00 30° W 01:51:01 27° WSW
STARLINK-1221 2.7 01:47:08 10° WNW 01:50:15 85° SSW 01:53:21 10° ESE
STARLINK-1222 2.7 01:48:02 10° WNW 01:51:09 84° SSW 01:54:14 10° ESE
Cosmos 1656 4.4 01:48:20 21° S 01:51:44 46° ESE 01:57:06 10° NE
STARLINK-1214 2.7 01:48:57 10° WNW 01:52:03 82° SSW 01:55:09 10° ESE
STARLINK-1154 4.2 01:48:26 10° WNW 01:52:32 59° NNE 01:56:39 10° ESE
CZ-4C R/B 3.7 01:50:43 14° SSE 01:53:43 23° ESE 01:58:02 10° ENE
Cosmos 2084 3.6 01:52:18 34° SSW 01:54:09 70° SE 01:58:37 10° NE
SJ 16-02 1.9 01:49:58 10° NNW 01:54:22 57° ENE 01:58:43 10° SE
SL-14 R/B 4.4 01:54:05 25° WSW 01:55:10 29° WNW 01:58:36 10° N
SL-08 ROCKET BODY 4.4 01:52:04 27° SSW 01:55:23 71° W 02:01:15 10° N
STARLINK-1197 4.1 01:53:24 10° WNW 01:57:32 63° NNE 02:01:39 10° ESE
COSMOS 2455 3.7 01:54:47 18° WSW 01:58:59 43° NW 02:04:45 10° NNE
Cosmos 1300 3.9 01:56:12 10° NNW 01:59:26 26° W 02:00:00 25° WSW
Meteor 2-10 Rocket 3.6 01:56:09 10° N 02:01:32 79° ENE 02:06:00 14° SSE
Cosmos 921 Rocket 3.5 02:00:21 28° WSW 02:02:10 47° WNW 02:06:21 10° N
STARLINK-1198 4.0 01:58:21 10° WNW 02:02:29 66° NNE 02:06:37 10° ESE
Cosmos 1709 Rocket 4.0 02:01:48 20° S 02:06:09 82° E 02:12:18 10° N
STARLINK-1199 3.9 02:03:22 10° WNW 02:07:31 70° NNE 02:11:39 10° ESE
Cosmos 1626 Rocket 4.0 02:06:42 28° SW 02:08:35 47° WNW 02:12:47 10° N
Cosmos 1626 3.9 02:09:03 17° W 02:10:11 19° WNW 02:12:56 10° NNW
STARLINK-60 3.9 02:08:51 19° W 02:10:51 44° NNW 02:13:57 10° NE
STARLINK-1210 3.8 02:08:20 10° WNW 02:12:29 74° NNE 02:16:38 10° ESE
STARLINK-1320 3.6 02:14:52 33° S 02:15:37 39° SE 02:18:33 10° ENE
STARLINK-1322 3.6 02:15:11 33° S 02:15:57 39° SE 02:18:54 10° ENE
STARLINK-1324 3.5 02:15:32 33° S 02:16:18 40° SE 02:19:15 10° ENE
Cosmos 2219 3.2 02:10:43 10° NNW 02:16:20 64° WSW 02:21:53 10° SSE
STARLINK-1294 3.5 02:15:47 33° S 02:16:35 40° SE 02:19:34 10° ENE
STARLINK-1261 3.5 02:16:10 33° S 02:16:57 40° SE 02:19:55 10° ENE
STARLINK-1325 3.5 02:16:30 33° S 02:17:18 41° SE 02:20:16 10° ENE
STARLINK-1219 3.7 02:13:18 10° WNW 02:17:29 79° NNE 02:21:37 10° ESE
STARLINK-1333 3.5 02:16:48 33° S 02:17:37 41° SE 02:20:35 10° ENE
STARLINK-1334 3.5 02:17:07 33° S 02:17:57 41° SE 02:20:56 10° ENE
STARLINK-1326 3.5 02:17:28 33° S 02:18:18 41° SE 02:21:17 10° ENE
STARLINK-1323 3.5 02:17:47 33° S 02:18:38 42° SE 02:21:37 10° ENE
STARLINK-1338 3.8 02:17:39 29° S 02:18:52 41° SE 02:22:10 10° ENE
STARLINK-1349 3.5 02:18:06 33° S 02:18:58 42° SE 02:21:57 10° ENE
Cosmos 1980 Rocket 4.0 02:14:52 10° SSE 02:19:12 23° ESE 02:23:33 10° NE
STARLINK-1336 3.5 02:18:28 32° S 02:19:20 42° SE 02:22:19 10° ENE
STARLINK-1331 3.4 02:18:45 32° S 02:19:38 42° SE 02:22:38 10° ENE
STARLINK-1344 3.4 02:19:05 32° S 02:19:59 43° SE 02:22:58 10° ENE
STARLINK-1343 3.4 02:19:25 32° S 02:20:19 43° SE 02:23:18 10° ENE
STARLINK-1346 3.4 02:19:43 32° S 02:20:40 44° SE 02:23:42 10° ENE
STARLINK-1328 3.4 02:20:05 32° S 02:21:01 44° SE 02:24:00 10° ENE
STARLINK-1354 3.4 02:20:22 32° S 02:21:19 44° SE 02:24:19 10° ENE
STARLINK-1347 3.4 02:20:44 32° SSW 02:21:41 44° SE 02:24:41 10° ENE
STARLINK-1357 3.4 02:21:02 32° SSW 02:22:00 45° SE 02:25:00 10° ENE
Cosmos 1328 4.2 02:19:19 18° S 02:22:08 62° E 02:26:06 10° NNE
STARLINK-1335 3.4 02:21:22 32° SSW 02:22:21 45° SE 02:25:21 10° ENE
STARLINK-1211 3.6 02:18:16 10° WNW 02:22:26 83° NNE 02:26:35 10° ESE
STARLINK-1327 3.4 02:21:41 32° SSW 02:22:40 45° SE 02:25:41 10° ENE
STARLINK-1371 3.7 02:21:31 28° SSW 02:22:53 44° SE 02:26:14 10° ENE
STARLINK-1340 3.3 02:22:01 32° SSW 02:23:02 45° SE 02:26:03 10° ENE
STARLINK-1356 3.3 02:22:21 32° SSW 02:23:22 46° SE 02:26:23 10° ENE
Cosmos 192 4.4 02:20:35 23° SSW 02:23:42 75° WNW 02:28:41 10° NNE
STARLINK-1345 3.3 02:22:40 32° SSW 02:23:43 46° SE 02:26:43 10° ENE
STARLINK-1355 3.3 02:22:59 32° SSW 02:24:02 46° SE 02:27:03 10° ENE
STARLINK-1321 3.3 02:23:18 31° SSW 02:24:21 47° SE 02:27:22 10° ENE
UNK 4.5 02:22:21 23° SW 02:24:29 35° W 02:28:43 10° NNW
STARLINK-1358 3.3 02:23:39 31° SSW 02:24:44 47° SE 02:27:45 10° ENE
ERS-2 3.6 02:21:30 10° SE 02:24:53 37° ENE 02:28:19 10° N
STARLINK-1341 3.7 02:23:29 28° SSW 02:24:55 46° SE 02:28:17 10° ENE
STARLINK-1332 3.3 02:23:57 31° SSW 02:25:02 47° SE 02:28:03 10° ENE
STARLINK-1348 3.3 02:24:18 31° SSW 02:25:24 48° SE 02:28:25 10° ENE
STARLINK-1330 3.3 02:24:36 31° SSW 02:25:43 48° SE 02:28:44 10° ENE
STARLINK-1363 3.3 02:24:56 31° SSW 02:26:02 48° SE 02:29:04 10° ENE
STARLINK-1337 3.3 02:25:15 31° SSW 02:26:23 49° SE 02:29:25 10° ENE
STARLINK-1342 3.2 02:25:35 31° SSW 02:26:43 49° SE 02:29:45 10° ENE
STARLINK-1374 3.6 02:25:26 27° SSW 02:26:58 47° SE 02:30:21 10° ENE
STARLINK-1364 3.2 02:25:55 31° SSW 02:27:04 49° SE 02:30:06 10° ENE
STARLINK-1376 3.2 02:26:15 30° SSW 02:27:25 50° SE 02:30:28 10° ENE
STARLINK-1245 3.6 02:23:16 10° WNW 02:27:26 88° NNE 02:31:35 10° ESE
STARLINK-1360 3.2 02:26:30 30° SSW 02:27:41 50° SE 02:30:44 10° ENE
STARLINK-1361 3.2 02:26:56 30° SSW 02:28:07 51° SE 02:31:10 10° ENE
STARLINK-1367 3.2 02:27:10 30° SSW 02:28:23 51° SE 02:31:28 10° ENE
STARLINK-1366 3.2 02:27:33 30° SSW 02:28:45 51° SE 02:31:48 10° ENE
AQUA 4.0 02:24:16 10° N 02:28:59 62° WNW 02:32:11 20° SSW
STARLINK-1339 3.6 02:27:27 27° SSW 02:29:02 49° SE 02:32:27 10° ENE
Cosmos 1812 Rocket 4.2 02:25:01 10° NNW 02:29:11 39° W 02:31:38 21° SSW
SL-4 R/B 2.8 02:24:45 11° W 02:29:26 61° NNW 02:34:04 10° ENE
STARLINK-1377 3.5 02:29:28 26° SSW 02:31:08 51° SE 02:34:33 10° ENE
CZ-4B R/B 3.8 02:26:27 10° N 02:31:30 59° WNW 02:35:12 19° SW
Cosmos 2297 Rocket 2.2 02:26:18 10° NNW 02:31:52 60° WSW 02:37:24 10° S
STARLINK-1233 3.5 02:28:14 10° WNW 02:32:24 87° SSW 02:36:33 10° ESE
STARLINK-1353 3.5 02:31:17 26° SSW 02:33:00 53° SE 02:36:24 10° ENE
STARLINK-1375 3.4 02:33:04 25° SSW 02:34:51 55° SE 02:38:16 10° ENE
Cosmos 2082 3.8 02:29:55 10° NNW 02:35:37 79° ENE 02:41:15 10° SSE
ATLAS CENTAUR R/B 3.3 02:33:29 10° W 02:36:51 22° NW 02:40:04 10° NNE
STARLINK-1350 3.3 02:35:22 24° SW 02:37:14 57° SE 02:40:40 10° ENE
Cosmos 540 Rocket 4.4 02:32:26 10° S 02:37:15 42° ESE 02:42:05 10° NE
STARLINK-1204 3.5 02:33:14 10° WNW 02:37:24 81° SSW 02:41:32 10° SE
FALCON 9 DEB 3.2 02:35:24 19° WSW 02:37:42 72° NNW 02:41:10 10° ENE
Cosmos 990 Rocket 4.0 02:32:31 10° NNW 02:37:45 66° WSW 02:42:56 10° S
CBERS-1 4.0 02:33:15 10° N 02:38:23 75° WNW 02:42:29 16° SSW
STARLINK-29 3.7 02:36:59 15° W 02:39:29 47° NNW 02:42:35 10° NE
OE (NEXTSAT) 4.2 02:36:54 16° WSW 02:39:33 74° S 02:43:02 10° E
STARLINK-1352 3.3 02:37:40 23° SW 02:39:39 60° SE 02:43:08 10° ENE
Cosmos 1825 Rocket 3.5 02:38:21 18° SSW 02:41:31 70° W 02:45:51 10° N
STARLINK-1368 3.3 02:39:45 22° SW 02:41:49 63° SSE 02:45:19 10° ENE
Cosmos 1455 2.7 02:38:24 10° NNW 02:41:57 41° W 02:44:16 19° SSW
STARLINK-1238 3.5 02:38:11 10° WNW 02:42:20 76° SSW 02:46:28 10° SE
STARLINK-1369 3.2 02:41:37 21° SW 02:43:43 65° SSE 02:47:12 10° ENE
Meteor 1-28 Rocket 3.8 02:40:56 10° SSE 02:44:39 59° ENE 02:48:23 10° N
SL-16 R/B 3.4 02:41:06 16° SW 02:44:58 30° W 02:50:21 10° NW
ATLAS CENTAUR R/B 2.4 02:42:45 10° WNW 02:45:50 46° SW 02:52:47 10° SSE
STARLINK-1372 3.2 02:43:57 20° SW 02:46:12 68° SSE 02:49:43 10° ENE
Cosmos 2263 Rocket 4.4 02:42:23 10° N 02:47:16 29° NE 02:52:05 10° ESE
STARLINK-1201 3.5 02:43:11 10° WNW 02:47:19 71° SW 02:51:27 10° SE
Cosmos 2074 Rocket 4.3 02:41:15 10° S 02:47:29 70° E 02:53:46 10° NNE
STARLINK-1378 3.2 02:46:05 20° SW 02:48:25 71° SSE 02:51:57 10° ENE
STARLINK-1329 3.2 02:46:35 19° SW 02:48:57 71° SSE 02:52:29 10° ENE
Cosmos 841 Rocket 4.0 02:44:27 11° S 02:49:29 59° ESE 02:54:38 10° NNE
STARLINK-1365 3.2 02:47:17 19° SW 02:49:40 75° SSE 02:53:12 10° ENE
GP-B 3.6 02:46:02 10° N 02:50:16 43° W 02:53:36 15° SSW
STARLINK-1379 3.2 02:48:13 19° SW 02:50:38 74° SSE 02:54:10 10° ENE
STARLINK-1362 3.2 02:48:47 19° SW 02:51:13 74° SSE 02:54:47 10° ENE
IRS-1D 3.8 02:46:01 10° N 02:51:17 60° WNW 02:55:45 14° SSW
STARLINK-1206 3.5 02:48:11 10° WNW 02:52:18 66° SW 02:56:24 10° SE
Cosmos-2242 3.3 02:49:25 10° NNW 02:53:31 47° W 02:57:20 12° SSW
STARLINK-1373 3.2 02:50:59 18° SW 02:53:32 77° SSE 02:57:05 10° ENE
COBE Rocket 4.0 02:49:46 10° SSE 02:54:40 83° ENE 02:59:46 10° N
Cosmos 1400 Rocket 3.0 02:50:35 10° N 02:54:43 80° E 02:58:51 10° SSE
Cosmos 2221 3.9 02:51:23 10° N 02:55:28 39° ENE 02:59:33 10° SE
STARLINK-1390 3.2 02:52:59 17° SW 02:55:35 80° SSE 02:59:08 10° ENE
ATLAS 3B R/B 4.1 02:52:10 10° WNW 02:56:30 18° WSW 02:59:50 13° SW
STARLINK-1205 3.6 02:53:10 10° WNW 02:57:16 61° SW 03:01:21 10° SE
RESURS DK-1 4.5 02:55:48 10° W 02:58:40 18° NW 03:01:32 10° N
Cosmos 2184 Rocket 4.1 02:52:48 10° S 02:59:00 81° E 03:05:11 10° N
STARLINK-1237 4.5 02:55:26 10° WNW 02:59:30 53° NNE 03:03:34 10° E
SL-08 R/B 3.3 02:55:33 10° S 03:00:13 62° WSW 03:04:50 10° NNW
CZ-4C R/B 3.8 02:57:06 10° SSE 03:00:36 56° ENE 03:04:11 10° N
STARLINK-1218 3.6 02:58:09 10° WNW 03:02:13 56° SW 03:06:16 10° SE
STARLINK-1202 4.4 03:00:25 10° WNW 03:04:30 56° NNE 03:08:35 10° E
Cosmos 1703 4.0 03:02:09 14° SW 03:05:12 39° WNW 03:08:56 10° N
IRS-P3 4.3 03:01:37 10° N 03:06:53 61° WNW 03:12:06 10° SSW
STARLINK-1254 3.7 03:03:09 10° WNW 03:07:11 52° SW 03:11:13 10° SE
CZ-2D R/B 3.5 03:03:04 10° N 03:07:17 25° WNW 03:11:26 10° WSW
Cosmos 2227 Rocket 2.8 03:02:08 10° NW 03:07:18 37° WSW 03:12:27 10° S
Cosmos 2181 Rocket 4.5 03:02:02 10° NNW 03:08:06 46° W 03:14:11 10° SSW
Cosmos 1763 Rocket 3.7 03:03:46 13° SW 03:08:17 56° WNW 03:13:18 10° NNE
ADEOS II 2.4 03:04:52 10° N 03:10:00 53° WNW 03:15:03 10° SW
Cosmos 1697 Rocket 2.7 03:04:56 11° SSW 03:10:20 81° WNW 03:16:03 10° NNE
STARLINK-1231 3.8 03:08:10 10° WNW 03:12:10 48° SW 03:16:09 10° SE
STARLINK-1212 4.5 03:10:25 10° W 03:12:28 16° SW 03:14:30 10° S
STARLINK-1105 4.5 03:10:55 10° W 03:12:56 16° SW 03:14:55 10° S
STARLINK-1247 4.5 03:11:50 10° W 03:13:51 16° SW 03:15:52 10° S
STARLINK-1227 4.5 03:12:20 10° W 03:14:17 16° SW 03:16:14 10° S
STARLINK-1246 4.2 03:10:22 10° WNW 03:14:29 61° NNE 03:18:36 10° ESE
Cosmos 1315 Rocket 3.9 03:10:55 10° N 03:14:44 47° ENE 03:18:30 10° SSE
STARLINK-52 4.3 03:13:02 10° W 03:16:02 35° NNW 03:19:02 10° NE
SL-16 R/B 4.4 03:12:34 10° SSE 03:16:39 21° E 03:20:44 10° NE
Resurs 1-4 Rocket 3.7 03:12:50 10° NNW 03:16:42 21° WNW 03:20:33 10° WSW
CZ-2C R/B 3.3 03:13:09 10° NNE 03:16:48 54° E 03:20:26 10° S
STARLINK-1232 3.9 03:13:10 10° WNW 03:17:08 44° SW 03:21:04 10° SSE
STARLINK-1224 4.1 03:15:21 10° WNW 03:19:29 65° NNE 03:23:36 10° ESE
H-2A R/B 2.1 03:16:46 10° S 03:21:03 69° WSW 03:25:27 10° NNW
ARIANE 5 R/B 2.6 03:16:32 10° N 03:21:35 64° WNW 03:26:32 10° SSW
STARLINK-1208 4.0 03:18:09 10° WNW 03:22:03 41° SW 03:25:57 10° SSE
BREEZE-M R/B 2.6 03:19:32 10° W 03:23:07 58° NNW 03:25:36 10° ENE
STARLINK-1225 4.0 03:20:20 10° WNW 03:24:29 69° NNE 03:28:36 10° ESE
STARLINK-1271 4.1 03:23:11 10° WNW 03:27:02 38° SW 03:30:52 10° SSE
Spot 4 Rocket 4.1 03:22:20 10° NNE 03:27:29 78° WNW 03:32:36 10° SSW
BREEZE-M DEB (TANK) 2.2 03:25:50 10° W 03:27:43 25° SSW 03:29:44 10° SSE
Lacrosse 4 Rocket 1.5 03:24:45 10° NW 03:29:03 59° WSW 03:33:11 10° SSE
STARLINK-1230 3.9 03:25:18 10° WNW 03:29:27 73° NNE 03:33:36 10° ESE
Meteor 1-27 4.3 03:24:36 10° NNW 03:30:06 62° W 03:35:34 10° S
Cosmos 2154 Rocket 4.1 03:24:40 10° S 03:30:58 90° ESE 03:37:17 10° N
USA 129 1.4 03:29:15 10° NNE 03:31:19 64° ESE 03:32:47 10° S
STARLINK-1154 4.2 03:28:12 10° WNW 03:32:00 35° SW 03:35:46 10° SSE
Cosmos 2058 3.8 03:28:12 10° S 03:32:15 51° E 03:36:21 10° NNE
SJ 16-02 3.0 03:29:45 10° WNW 03:32:28 16° W 03:35:10 10° SW
Cosmos 2298 Rocket 4.0 03:27:46 10° NNW 03:33:06 83° WSW 03:38:24 10° SSE
STARLINK-1243 3.8 03:30:17 10° WNW 03:34:27 77° NNE 03:38:35 10° ESE
IDEFIX/ARIANE 42P 2.7 03:30:11 10° NNE 03:35:30 89° ESE 03:40:47 10° SSW
STARLINK-1197 4.3 03:33:13 10° WNW 03:36:56 32° SW 03:40:39 10° SSE
Cosmos 1570 Rocket 4.5 03:34:06 10° SW 03:39:16 50° WNW 03:44:26 10° NNE
STARLINK-1236 3.8 03:35:16 10° WNW 03:39:26 82° NNE 03:43:34 10° ESE
Cosmos 1937 Rocket 4.4 03:36:19 10° NW 03:40:43 28° W 03:45:08 10° SSW
CZ-4C R/B 2.4 03:36:28 10° SW 03:41:31 64° NW 03:47:36 10° NE
Cosmos 2208 Rocket 4.3 03:37:05 10° SW 03:42:12 55° WNW 03:47:27 10° NNE
